TimeCST,TemperatureF,Dew PointF,Humidity,Sea Level PressureIn,VisibilityMPH,Wind Direction,Wind SpeedMPH,Gust SpeedMPH,PrecipitationIn,Events,Conditions,WindDirDegrees,DateUTC
12:15 AM,52.3,36.0,54,30.23,10.0,ESE,4.6,-,N/A,,Mostly Cloudy,120,2012-11-19 06:15:00
12:35 AM,51.8,36.3,56,30.23,10.0,ESE,5.8,-,N/A,,Mostly Cloudy,110,2012-11-19 06:35:00
12:55 AM,51.4,36.5,57,30.23,10.0,ESE,6.9,-,N/A,,Scattered Clouds,120,2012-11-19 06:55:00
1:15 AM,52.0,36.5,56,30.23,10.0,ESE,5.8,-,N/A,,Mostly Cloudy,110,2012-11-19 07:15:00
1:35 AM,52.0,36.7,56,30.22,10.0,SE,6.9,-,N/A,,Overcast,130,2012-11-19 07:35:00
1:55 AM,52.2,36.7,56,30.23,10.0,East,4.6,-,N/A,,Overcast,100,2012-11-19 07:55:00
2:15 AM,51.6,36.7,57,30.22,10.0,East,4.6,-,N/A,,Overcast,90,2012-11-19 08:15:00
2:35 AM,51.6,36.9,57,30.23,10.0,ESE,5.8,-,N/A,,Overcast,110,2012-11-19 08:35:00
2:55 AM,51.3,36.9,58,30.23,10.0,ESE,6.9,-,N/A,,Overcast,120,2012-11-19 08:55:00
3:15 AM,51.3,37.2,59,30.22,10.0,SE,4.6,-,N/A,,Overcast,130,2012-11-19 09:15:00
3:35 AM,51.4,37.8,60,30.23,10.0,ESE,4.6,-,N/A,,Overcast,110,2012-11-19 09:35:00
3:55 AM,51.1,37.8,60,30.22,10.0,ESE,4.6,-,N/A,,Overcast,120,2012-11-19 09:55:00
4:15 AM,51.8,37.4,58,30.22,10.0,ESE,5.8,-,N/A,,Overcast,120,2012-11-19 10:15:00
4:35 AM,51.8,37.6,58,30.22,10.0,ESE,4.6,-,N/A,,Overcast,120,2012-11-19 10:35:00
4:55 AM,51.4,37.9,60,30.22,10.0,East,4.6,-,N/A,,Overcast,100,2012-11-19 10:55:00
5:15 AM,51.3,38.3,61,30.22,10.0,ESE,5.8,-,N/A,,Overcast,110,2012-11-19 11:15:00
5:35 AM,51.8,38.3,60,30.22,10.0,East,3.5,-,N/A,,Overcast,100,2012-11-19 11:35:00
5:55 AM,51.8,38.3,60,30.22,10.0,East,4.6,-,N/A,,Overcast,100,2012-11-19 11:55:00
6:15 AM,51.4,38.3,61,30.22,10.0,East,4.6,-,N/A,,Overcast,100,2012-11-19 12:15:00
6:35 AM,51.3,38.7,62,30.22,10.0,ESE,4.6,-,N/A,,Overcast,110,2012-11-19 12:35:00
6:55 AM,51.3,38.7,62,30.22,10.0,ESE,5.8,-,N/A,,Overcast,120,2012-11-19 12:55:00
7:35 AM,51.8,39.2,62,30.24,10.0,SE,3.5,-,N/A,,Overcast,130,2012-11-19 13:35:00
7:55 AM,52.3,39.6,62,30.24,10.0,ESE,4.6,-,N/A,,Overcast,110,2012-11-19 13:55:00
8:15 AM,53.1,39.7,61,30.24,10.0,ESE,4.6,-,N/A,,Overcast,120,2012-11-19 14:15:00
8:35 AM,53.6,39.4,59,30.25,10.0,SE,5.8,-,N/A,,Overcast,130,2012-11-19 14:35:00
8:55 AM,54.7,39.6,57,30.24,10.0,SE,5.8,-,N/A,,Overcast,140,2012-11-19 14:55:00
9:15 AM,55.8,39.6,55,30.25,10.0,SSE,4.6,-,N/A,,Overcast,160,2012-11-19 15:15:00
9:35 AM,57.9,40.1,52,30.24,10.0,SSE,3.5,-,N/A,,Overcast,150,2012-11-19 15:35:00
9:55 AM,60.6,39.4,45,30.24,10.0,SSW,4.6,-,N/A,,Overcast,200,2012-11-19 15:55:00
10:15 AM,63.0,39.0,41,30.24,10.0,South,5.8,-,N/A,,Overcast,180,2012-11-19 16:15:00
10:35 AM,63.9,39.2,40,30.23,10.0,South,9.2,-,N/A,,Overcast,170,2012-11-19 16:35:00
10:55 AM,66.2,40.5,39,30.23,10.0,South,9.2,-,N/A,,Scattered Clouds,170,2012-11-19 16:55:00
11:15 AM,67.3,41.0,38,30.21,10.0,South,8.1,-,N/A,,Clear,170,2012-11-19 17:15:00
11:35 AM,69.3,44.4,41,30.20,10.0,South,8.1,-,N/A,,Scattered Clouds,190,2012-11-19 17:35:00
11:55 AM,70.2,44.2,39,30.19,10.0,South,11.5,17.3,N/A,,Scattered Clouds,180,2012-11-19 17:55:00
12:15 PM,69.6,43.7,39,30.18,10.0,South,10.4,-,N/A,,Scattered Clouds,180,2012-11-19 18:15:00
12:35 PM,69.1,43.9,40,30.17,10.0,SSW,6.9,-,N/A,,Mostly Cloudy,210,2012-11-19 18:35:00
12:55 PM,68.9,46.2,44,30.17,10.0,SSW,8.1,16.1,N/A,,Overcast,210,2012-11-19 18:55:00
1:15 PM,68.9,46.6,45,30.15,10.0,SSW,8.1,-,N/A,,Overcast,210,2012-11-19 19:15:00
1:35 PM,72.3,48.4,43,30.15,10.0,South,12.7,18.4,N/A,,Overcast,190,2012-11-19 19:35:00
1:55 PM,70.9,48.2,44,30.14,10.0,South,10.4,-,N/A,,Overcast,190,2012-11-19 19:55:00
2:15 PM,71.4,48.6,44,30.14,10.0,South,10.4,-,N/A,,Mostly Cloudy,190,2012-11-19 20:15:00
2:35 PM,71.4,48.2,44,30.13,10.0,South,8.1,-,N/A,,Clear,190,2012-11-19 20:35:00
2:55 PM,70.7,47.7,44,30.14,10.0,South,8.1,-,N/A,,Scattered Clouds,190,2012-11-19 20:55:00
3:15 PM,69.8,47.5,45,30.14,10.0,South,8.1,-,N/A,,Overcast,180,2012-11-19 21:15:00
3:35 PM,69.8,47.5,45,30.14,10.0,South,5.8,-,N/A,,Overcast,190,2012-11-19 21:35:00
3:55 PM,69.8,47.7,45,30.13,10.0,SSE,4.6,-,N/A,,Overcast,150,2012-11-19 21:55:00
4:15 PM,69.1,47.7,46,30.14,10.0,SE,5.8,-,N/A,,Overcast,140,2012-11-19 22:15:00
4:35 PM,68.9,47.5,46,30.13,10.0,SE,5.8,-,N/A,,Overcast,130,2012-11-19 22:35:00
4:55 PM,68.0,47.7,48,30.13,10.0,SE,8.1,-,N/A,,Overcast,140,2012-11-19 22:55:00
5:15 PM,67.1,47.7,50,30.13,10.0,SE,4.6,-,N/A,,Overcast,140,2012-11-19 23:15:00
5:35 PM,-9999,-9999,N/A,-9999,-9999.0,North,-9999.0,-,N/A,,Unknown,0,2012-11-19 23:35:00
5:55 PM,65.3,47.3,52,30.15,10.0,SSE,4.6,-,N/A,,Overcast,150,2012-11-19 23:55:00
6:15 PM,64.6,47.3,53,30.16,10.0,SSE,3.5,-,N/A,,Overcast,150,2012-11-20 00:15:00
6:35 PM,64.6,47.3,53,30.16,10.0,SSE,3.5,-,N/A,,Overcast,150,2012-11-20 00:35:00
6:55 PM,64.9,47.3,53,30.16,10.0,SSE,4.6,-,N/A,,Overcast,150,2012-11-20 00:55:00
7:15 PM,63.7,46.9,54,30.16,10.0,SSE,6.9,-,N/A,,Mostly Cloudy,160,2012-11-20 01:15:00
7:35 PM,62.8,46.8,56,30.16,10.0,South,5.8,-,N/A,,Clear,170,2012-11-20 01:35:00
7:55 PM,62.6,46.8,56,30.17,10.0,SSE,4.6,-,N/A,,Mostly Cloudy,160,2012-11-20 01:55:00
8:15 PM,61.9,46.6,57,30.17,10.0,Calm,Calm,-,N/A,,Overcast,0,2012-11-20 02:15:00
8:35 PM,61.2,46.9,60,30.18,10.0,Calm,Calm,-,N/A,,Overcast,0,2012-11-20 02:35:00
8:55 PM,59.4,46.6,63,30.18,10.0,East,4.6,-,N/A,,Overcast,80,2012-11-20 02:55:00
9:15 PM,60.1,45.5,59,30.18,10.0,ESE,4.6,-,N/A,,Overcast,110,2012-11-20 03:15:00
9:35 PM,59.9,44.6,57,30.17,10.0,East,3.5,-,N/A,,Overcast,100,2012-11-20 03:35:00
9:55 PM,58.8,44.2,58,30.17,10.0,East,3.5,-,N/A,,Overcast,100,2012-11-20 03:55:00
10:15 PM,58.1,44.1,60,30.17,10.0,East,4.6,-,N/A,,Overcast,80,2012-11-20 04:15:00
10:35 PM,57.2,44.1,62,30.17,10.0,ESE,3.5,-,N/A,,Overcast,120,2012-11-20 04:35:00
10:55 PM,57.2,43.9,61,30.16,10.0,ESE,3.5,-,N/A,,Overcast,110,2012-11-20 04:55:00
11:15 PM,57.4,43.5,60,30.16,10.0,ESE,4.6,-,N/A,,Overcast,110,2012-11-20 05:15:00
11:35 PM,56.5,43.5,62,30.16,10.0,ESE,3.5,-,N/A,,Overcast,120,2012-11-20 05:35:00
11:55 PM,55.8,43.3,63,30.16,10.0,ESE,3.5,-,N/A,,Mostly Cloudy,120,2012-11-20 05:55:00